Regional Weather Roundup
Issued by NWS Charleston, SC

Current Version | Previous Version | Text Only | Print | Product List | Glossary Off
Versions: 1 2 3 4 5 6 7 8 9 10 11 12 13 14 15 16 17 18 19 20 21 22 23 24 25 26 27 28 29 30 31 32 33 34 35 36 37 38 39 40 41 42 43 44 45 46 47 48 49 50
000 ASUS42 KCHS 300427 RWRCHS REGIONAL WEATHER ROUNDUP NATIONAL WEATHER SERVICE CHARLESTON SC 1200 AM EDT THU MAR 30 2017 NOTE: "FAIR" INDICATES FEW OR NO CLOUDS BELOW 12,000 FEET WITH NO SIGNIFICANT WEATHER AND/OR OBSTRUCTIONS TO VISIBILITY. NOT ALL STATIONS ARE QUALITY CONTROLLED. USE DATA WITH CAUTION... ESPECIALLY DEWPOINT OBSERVATIONS. SCZ027-030-031-034>040-042>050-300500- ...SOUTHEAST SOUTH CAROLINA... CITY SKY/WX TMP DP RH WIND PRES REMARKS N CHARLESTON MOCLDY 67 62 84 E8 30.07R WATERFRONT PRK N/A 66 64 93 E8 30.05S JOHNS ISLAND CLOUDY 68 64 88 NE9 30.07R PINOPOLIS N/A 64 63 94 E5 29.99R MONCKS CORNER CLOUDY 64 59 82 E5 30.08S SUMMERVILLE CLOUDY 66 63 88 E6 30.08S BEAUFORT MCAS CLOUDY 68 68 100 E6 30.06R FOG BEAUFORT ARPT CLOUDY 66 64 94 E3 30.06R FOG HILTON HEAD IS CLOUDY 64 64 100 VRB3 30.06S FOG WALTERBORO CLOUDY 66 63 88 E7 30.07S ALLENDALE FAIR 66 61 82 E5 30.05R ...SOUTHERN MIDLANDS AND PEE DEE... CITY SKY/WX TMP DP RH WIND PRES REMARKS GEORGETOWN CLOUDY 63 61 94 E7 30.10S KINGSTREE MOCLDY 59 55 88 E5 30.10R ORANGEBURG PTCLDY 66 60 81 SE8 30.06R BARNWELL FAIR 68 59 73 SE9 30.06R AIKEN FAIR 63 50 63 E10G16 30.07R MANNING CLOUDY 63 55 77 SE5 30.08S COLUMBIA CLEAR 67 57 70 E7 30.04R SUMTER PTCLDY 63 57 80 SE9 30.06R FLORENCE CLEAR 60 53 77 SE8 30.10S MYRTLE BEACH CLEAR 62 58 86 E10 30.12S N MYRTLE BEACH MOCLDY 63 57 81 E9G20 30.11S $$ GAZ063-065-086>088-099>101-113>116-118-119-134>141-150-300500- ...SOUTHEAST GEORGIA... CITY SKY/WX TMP DP RH WIND PRES REMARKS SAVANNAH ARPT PTCLDY 65 61 87 E7 30.05R HUNTER AAF PTCLDY 65 65 100 E6 30.02R FORT STEWART PTCLDY 64 59 84 CALM 30.02R STATESBORO PTCLDY 67 60 77 SE3 30.03S SYLVANIA PTCLDY N/A N/A N/A SE5 30.05R CLAXTON FAIR N/A N/A N/A CALM 30.02F ...CSRA...CENTRAL AND FAR SOUTHEAST GEORGIA... CITY SKY/WX TMP DP RH WIND PRES REMARKS THOMSON CLEAR 62 55 78 S3 30.06F AUGUSTA-BUSH CLEAR 62 56 80 CALM 30.01R AUGUSTA-DANIEL CLEAR 74 51 44 E6 30.03R SWAINSBORO FAIR 70 61 73 SE5 30.02F VIDALIA CLEAR 70 63 78 SE5 30.02S EASTMAN FAIR 69 57 65 CALM 30.02F HAZLEHURST FAIR 73 68 83 SE6 30.00S ALMA MOCLDY 73 65 75 SE6 30.02R WAYCROSS CLOUDY 74 68 80 CALM 30.02S JESUP CLOUDY 70 61 73 W3 30.03S BAXLEY CLOUDY 72 72 100 S3 30.03R BRUNSWICK CLOUDY 66 64 94 N3 30.04S SAINT SIMONS CLOUDY 69 66 90 VRB3 30.02F $$ SCZ027-028-034-036>038-045-046-048>050-GAZ119-141-300500- ...LAKE AND SUPPLEMENTAL COASTAL OBSERVATIONS... STATION/POSITION TIME TEMP WIND PRES WAVE SWELL AIR SEA DIR/SP/G HT/PER HT/PER/DIR (UTC) (F) (DEG/KT/KT) (MB) (FT/S) (FT/S/D) WINYAH BAY 0330 63 80/ 11 1019.0S LAKE MURRAY 0330 71 90/ 9/ 12 1016.6R ACE BASIN NERRS 0345 67 50/ 2 1018.0R FORT PULASKI 0400 65 66 120/ 4/ 6 1017.6 SAPELO ISLAND 0400 69 170/ 5 1017.0 $$ ANZ835-935-AMZ111-154-330-350-352-354-370-450-454-472-300500- ...C-MAN AND BUOY OBSERVATIONS... STATION/POSITION TIME TEMP WIND PRES WAVE SWELL AIR SEA DIR/SP/G HT/PER HT/PER/DIR (UTC) (F) (DEG/KT/KT) (MB) (FT/S) (FT/S/D) BUOY 41004 0350 71 68 80/ 16/ 19 1017.4S 5/11 3/110/11 BUOY 41008 0350 66 64 150/ 6/ 6 1016.5S 2/11 2/100/11 FOLLY BEACH CMAN 0400 65 60/ 11/ 12 1018.6R CAPERS NEARSHORE NOT AVBL FRIPP NEARSHORE 0408 64 63 70/ 6/ 8 1017.3R STATION/POSITION TIME TEMP WIND PRES WAVE SWELL AIR SEA DIR/SP/G HT/PER HT/PER/DIR (UTC) (F) (DEG/KT/KT) (MB) (FT/S) (FT/S/D) 5E ST. MARYS GA 0400 69 N/A 3/11 2/110/11 FRYING PAN BUOY 0410 69 73 70/ 17/ 21 1019.4 BUOY 41025 0350 60 74 40/ 19/ 21 1020.5S 6/ 9 3/ 90/ 9 CAPE LOOKOUT NC 0400 60 60/ 18/ 20 1020.2F BUOY 41002 0350 69 72 50/ 14/ 17 1018.1S 6/10 5/100/10 BUOY 41010 NOT AVBL ST AUGUSTINE FL 0400 70 69 230/ 4/ 6 1018.0R $$

USA.gov is the U.S. government's official web portal to all federal, state and local government web resources and services.